SCP
1 1 1 1 1 1 1 1 2 2 1 1 1 1 1 1 1 1 1 1 1 1 2 2 1 1 1 1 1 1 1 1 1 1 1 1 1 0 1 1 0 0 0
2 2 1 1 1 1 1 1 2 1 1 1 1 1 1 1 1 1 1 1 1 1 2 2 1 1 1 1 1 1 1 1 1 1 1 1 1 1 1 1 1 1 1
2 2 1 1 2 2 2 2 2 1 1 1 1 1 1 1 1 1 1 1 1 1 1 2 1 1 1 1 1 1 1 1 1 1 1 1 1 1 1 1 1 1 1
2 2 2 2 2 2 2 2 2 1 1 1 1 1 1 1 1 1 1 1 1 1 1 1 1 1 1 1 1 1 1 1 1 1 1 1 1 1 1 1 1 1 1
2 2 2 2 2 2 2 2 2 2 1 1 1 1 1 1 1 1 1 1 1 1 1 1 1 1 1 2 1 1 1 1 1 1 1 1 1 1 1 1 1 1 0
2 2 2 2 2 2 2 2 2 2 1 1 1 1 1 1 0 0 1 1 1 1 1 1 1 1 1 1 1 1 1 1 2 1 1 1 1 1 1 1 1 1 0
1 1 1 1 1 2 2 2 2 2 1 1 1 1 1 1 0 0 1 1 1 1 1 1 1 1 1 1 1 1 1 1 1 1 1 1 1 1 1 1 1 1 0
1 1 1 1 1 1 1 1 2 1 1 1 1 1 1 1 1 1 1 1 1 1 1 1 1 1 1 1 1 1 1 1 1 1 1 1 1 1 1 1 1 1 0
1 1 1 1 1 1 1 2 2 2 2 1 1 1 1 1 1 1 1 1 1 1 1 1 1 1 1 1 1 1 1 1 1 1 1 1 1 1 1 1 1 1 1
1 1 1 1 1 1 1 1 1 2 2 2 1 1 1 1 1 1 1 1 1 1 1 1 1 1 0 0 0 1 0 0 1 1 1 1 1 1 1 1 1 1 1
1 1 1 1 1 1 1 1 1 1 2 2 2 2 1 1 1 1 1 1 1 1 1 1 1 1 0 0 0 0 0 0 0 1 1 1 1 1 1 1 1 1 1
0 1 1 1 1 1 1 1 1 1 1 2 2 2 2 1 1 1 1 1 1 1 1 1 1 1 0 0 0 0 0 0 0 0 1 1 1 1 1 1 1 1 1
0 0 0 0 0 0 0 0 0 1 1 1 2 2 2 2 1 1 1 1 0 0 1 1 1 1 0 0 0 0 0 0 0 0 0 1 1 1 1 1 0 0 0
0 0 0 0 0 0 0 0 0 0 1 1 1 2 2 2 1 1 1 0 0 0 0 1 1 1 0 0 0 0 0 0 0 0 0 0 0 0 0 0 0 0 0
0 0 0 0 0 0 0 0 0 0 1 1 1 1 2 2 1 1 0 0 0 0 0 1 1 0 0 0 0 0 0 0 0 0 0 0 0 0 0 0 0 0 0
0 0 0 0 0 0 0 0 0 0 1 1 1 1 1 1 1 1 0 0 0 0 0 0 0 0 0 0 0 0 0 0 0 0 0 0 0 0 0 0 0 0 0
0 0 0 0 0 0 0 0 0 0 0 1 1 1 1 1 1 1 1 0 0 0 0 0 0 0 0 0 0 0 0 0 0 0 0 0 0 0 0 0 0 0 0
0 0 0 0 0 0 0 0 0 0 0 0 0 0 0 1 1 1 1 0 0 0 0 0 0 0 0 0 0 0 0 0 0 0 0 0 0 0 0 0 0 0 0
0 0 0 0 0 0 0 0 0 0 0 0 0 0 0 0 0 0 1 1 0 0 0 0 0 0 0 0 0 0 0 0 0 0 0 0 0 0 0 0 0 0 0
0 0 0 0 0 0 0 0 0 0 0 0 0 0 0 0 0 0 0 0 0 0 0 0 0 0 0 0 0 0 0 0 0 0 0 0 0 0 0 0 0 0 0
0 0 0 0 0 0 0 0 0 0 0 0 0 0 0 0 0 0 0 0 0 0 0 0 0 0 0 0 0 0 0 0 0 0 0 0 0 0 0 0 0 0 0
0 0 0 0 0 0 0 0 0 0 0 0 0 0 0 0 0 0 0 0 0 0 0 0 0 0 0 0 0 0 0 0 0 0 0 0 0 0 0 0 0 0 0
0 0 0 0 0 0 0 0 0 0 0 0 0 0 0 0 0 0 0 0 0 0 0 0 0 0 0 0 0 0 0 0 0 0 0 0 0 0 0 0 0 0 0
0 0 0 0 0 0 0 0 0 0 0 0 0 0 0 0 0 0 0 0 0 0 0 0 0 0 0 0 0 0 0 0 0 0 0 0 0 0 0 0 0 0 0
0 0 0 0 0 0 0 0 0 0 0 0 0 0 0 0 0 0 0 0 0 0 0 0 0 0 0 0 0 0 0 0 0 0 0 0 0 0 0 0 0 0 0
0 0 0 0 0 0 0 0 0 0 0 0 0 0 0 0 0 0 0 0 0 0 0 0 0 0 0 0 0 0 0 0 0 0 0 0 0 0 0 0 0 0 0
Wind_Speed
2 2 1 2 2 2 2 2 2 3 2 2 3 3 3 3 3 3 2 6 8 10 12 14 14 14 13 12 11 10 9 9 8 8 7 6 6 6 5 5 5 5 5
2 2 2 2 2 2 2 3 3 2 2 2 2 2 3 3 3 3 2 3 6 8 11 12 13 14 13 13 12 10 9 9 8 8 7 7 6 6 6 6 6 7 6
2 3 2 2 2 2 2 2 2 1 2 2 2 2 2 2 2 2 2 2 3 5 8 9 10 12 12 12 12 11 10 9 8 7 7 7 7 7 7 7 7 8 8
2 2 2 2 2 2 2 2 2 2 2 2 1 1 1 1 2 2 2 2 2 2 4 7 8 10 11 11 11 10 10 9 8 8 8 8 8 8 8 8 9 9 10
1 1 2 2 2 2 2 2 2 2 2 2 2 1 1 1 2 2 2 2 2 2 2 4 7 8 9 10 10 10 10 10 9 9 9 9 9 9 9 9 9 10 10
1 0 1 1 1 1 1 2 2 2 2 2 1 0 1 1 1 2 2 2 2 2 2 2 3 4 8 9 10 10 10 10 10 10 10 10 9 10 10 10 10 11 11
3 2 1 1 0 1 2 2 2 2 1 2 1 0 1 0 1 1 1 1 1 1 1 2 2 2 3 7 9 9 10 10 10 10 10 10 10 10 11 11 11 11 11
4 3 2 1 1 1 1 1 1 1 2 3 2 1 1 1 1 1 1 1 1 1 1 2 2 3 3 3 5 9 9 10 10 11 11 10 10 10 11 11 11 11 11
4 3 3 2 1 0 1 1 2 2 2 3 2 3 3 3 1 0 1 1 1 1 1 1 1 2 3 2 3 6 8 10 11 11 11 11 11 11 11 12 12 12 12
5 4 4 3 2 1 1 2 1 2 2 3 2 2 2 2 2 1 0 1 1 0 1 1 1 1 2 3 4 7 9 9 11 12 12 12 13 13 12 12 12 12 12
5 5 4 3 3 2 2 2 2 2 2 3 3 2 2 2 2 3 2 2 1 1 1 1 1 1 2 3 4 7 9 9 10 12 12 13 13 13 13 13 12 12 11
4 6 6 4 3 2 2 2 2 2 2 3 2 2 2 3 3 3 3 3 2 1 1 1 1 1 2 2 5 10 10 10 10 10 12 13 13 13 13 13 12 12 12
4 5 5 4 4 3 3 2 2 2 2 2 2 2 3 3 2 3 3 3 2 1 1 2 1 2 3 3 4 11 11 11 11 11 12 11 12 12 12 12 12 12 11
3 5 5 4 4 4 4 3 2 2 2 2 2 2 2 2 2 3 3 4 3 2 1 1 2 2 3 4 7 9 8 12 11 11 11 11 11 11 12 12 12 11 10
4 5 5 5 5 5 4 3 2 3 2 2 2 2 2 1 2 2 2 3 5 4 2 2 2 2 3 4 6 5 6 11 12 12 11 10 10 10 11 11 11 10 9
5 5 6 5 5 5 5 4 3 3 3 3 2 2 1 1 1 1 2 2 2 4 3 2 2 3 4 6 8 6 7 11 10 10 10 9 9 9 10 10 9 9 8
6 6 6 5 6 6 6 5 4 4 4 4 3 2 1 1 0 1 2 2 2 3 5 4 4 5 6 6 6 6 5 5 6 10 10 9 8 8 8 8 8 7 6
6 6 5 6 6 6 6 6 6 6 5 5 5 3 3 1 1 1 2 3 3 3 6 9 5 5 6 6 6 6 5 5 4 7 7 7 7 7 6 6 5 5 4
6 6 6 6 6 6 6 6 6 6 6 6 5 5 4 3 2 2 3 3 4 6 6 9 7 5 4 5 6 6 5 4 4 4 5 5 6 5 5 4 4 3 3
6 6 6 6 6 6 6 6 6 6 6 6 5 5 4 3 3 3 3 5 6 8 8 9 8 6 5 5 5 5 4 3 2 2 3 3 3 3 3 3 4 4 4
6 5 6 6 6 5 6 6 5 6 6 6 7 6 5 6 6 4 4 5 7 7 7 8 8 6 5 5 4 3 4 3 2 1 2 1 1 1 2 3 5 6 6
6 6 6 6 7 6 8 9 7 6 6 7 7 6 6 7 9 9 9 8 8 9 9 7 7 7 6 5 4 5 4 3 2 1 1 1 1 1 2 3 5 7 7
6 6 7 6 7 7 10 10 10 7 7 7 7 6 6 6 7 7 10 11 10 8 7 7 9 7 7 6 6 5 4 3 2 2 1 1 0 1 2 3 5 7 8
5 5 6 6 6 8 10 10 9 8 8 8 7 7 6 7 6 7 9 9 9 8 6 5 6 6 5 5 5 5 5 4 3 2 1 1 0 1 2 2 4 6 7
5 5 4 6 6 7 9 9 8 6 7 8 8 8 7 7 8 9 10 10 10 8 10 11 9 8 7 7 6 5 5 4 3 1 1 1 0 1 2 2 2 4 5
4 4 6 6 6 6 9 9 7 5 6 6 7 8 10 9 9 9 8 9 9 7 7 8 9 8 7 6 5 4 4 4 2 1 1 1 0 0 1 1 2 2 2
Wind_Direction
195 202 212 215 213 204 197 196 198 203 213 225 223 218 219 223 225 221 230 233 227 217 212 208 204 204 203 200 196 190 188 189 187 183 178 174 172 171 166 164 159 151 144
199 202 212 217 219 210 205 208 206 203 214 217 231 221 223 220 223 220 226 242 240 226 215 209 207 207 203 199 194 192 190 189 186 179 171 166 164 158 154 150 144 138 130
196 199 208 219 221 208 204 213 218 197 221 219 226 223 219 228 228 223 226 232 243 230 212 204 205 204 202 200 196 194 191 187 180 174 168 161 154 146 140 135 131 128 124
204 204 214 226 222 201 195 205 203 203 214 206 209 228 233 242 249 234 228 230 229 233 210 202 202 200 203 202 198 194 189 183 177 170 162 155 147 139 133 129 126 123 119
214 205 227 235 217 203 207 218 197 190 200 204 209 222 244 256 262 257 242 228 220 214 199 200 200 199 200 202 198 192 187 181 175 168 159 151 145 138 133 128 125 121 116
12 183 228 261 219 202 212 210 202 188 181 177 200 255 267 273 275 269 257 237 211 199 178 180 187 195 194 193 190 187 187 178 168 158 152 146 138 135 132 128 124 121 118
18 27 2 1 335 234 236 212 194 184 169 143 134 284 307 269 277 287 284 253 211 186 167 166 169 184 184 185 183 182 178 171 159 151 146 140 135 133 131 127 124 122 120
15 13 18 15 7 279 249 220 188 176 183 173 162 159 252 283 259 248 250 246 236 186 176 170 179 177 172 168 170 172 169 161 156 150 145 140 138 137 133 130 127 123 120
15 11 16 18 6 324 259 243 217 202 205 206 192 173 186 216 214 229 213 223 242 196 177 145 176 171 162 154 167 167 158 155 154 150 145 141 139 137 134 133 130 127 125
12 11 14 12 7 350 311 285 251 230 215 219 218 216 202 172 175 191 207 197 178 169 136 109 115 136 149 146 149 150 150 149 150 145 141 137 135 132 131 132 130 127 124
15 11 13 9 3 349 333 317 298 256 235 230 219 202 195 202 197 185 197 177 135 64 71 87 96 95 115 140 145 141 140 137 136 137 137 136 133 129 126 124 123 123 121
6 9 8 8 1 348 335 323 308 278 257 251 240 218 199 192 193 187 186 174 156 107 67 67 87 93 92 115 130 129 124 119 121 128 131 130 129 127 126 124 122 118 117
353 354 359 359 356 350 346 341 333 312 277 259 253 246 232 223 191 178 167 157 143 107 71 51 49 81 89 88 109 117 112 111 112 115 117 120 124 123 122 121 118 114 111
339 342 354 1 359 358 358 356 346 325 318 291 278 270 253 236 213 188 169 155 149 129 100 98 53 74 92 93 94 101 108 109 110 110 110 111 114 116 119 117 114 110 107
349 357 3 6 7 8 5 3 1 342 337 324 305 288 268 259 231 204 180 176 166 165 166 144 115 83 94 95 98 99 102 107 111 111 111 111 113 115 115 113 112 111 109
2 5 9 10 11 11 11 15 6 355 356 343 328 321 285 272 240 195 183 181 166 154 148 129 123 119 109 106 101 97 102 110 113 116 115 114 116 117 118 118 118 118 118
8 10 8 12 14 14 12 15 14 10 8 1 354 352 342 323 217 164 149 142 137 134 135 115 103 109 103 106 103 95 94 92 103 110 115 118 120 121 120 121 120 120 123
9 10 11 18 19 19 17 20 20 19 19 11 3 15 18 41 59 96 125 129 132 131 134 128 118 109 104 111 108 104 99 101 101 110 117 121 122 123 125 122 121 123 130
13 16 21 22 20 21 22 22 25 25 26 21 15 20 23 46 62 87 109 120 122 119 119 124 123 114 106 112 109 103 97 90 105 119 123 128 132 136 135 137 143 154 171
19 20 23 22 22 25 26 26 30 29 30 29 24 26 33 51 70 94 108 118 119 118 121 123 123 120 113 112 115 116 108 94 101 111 110 122 128 142 161 180 193 202 207
24 22 29 28 25 28 26 27 33 36 35 36 34 34 46 65 72 81 109 121 125 124 124 125 126 124 126 132 129 129 123 111 92 104 118 128 132 165 198 216 227 228 229
23 29 31 31 31 31 32 35 40 41 39 40 37 37 48 56 69 76 88 103 126 134 135 133 132 136 138 137 132 134 130 130 124 121 134 121 144 217 227 229 234 237 239
30 31 27 31 33 26 35 41 45 49 45 39 35 36 49 53 64 82 82 81 85 99 123 135 136 141 145 152 143 134 135 128 121 127 138 122 187 252 251 246 249 248 246
31 29 26 27 35 27 33 44 49 52 49 41 36 37 51 51 63 85 89 82 76 74 89 106 122 133 138 143 140 133 128 112 93 89 158 139 270 274 288 278 261 255 251
36 33 28 29 35 25 31 42 51 55 50 40 34 36 47 59 64 85 93 91 84 75 74 87 94 102 115 127 131 122 122 120 110 107 174 192 224 291 285 280 276 270 265
43 44 41 31 33 28 28 39 45 60 54 42 36 35 43 57 65 78 91 97 93 88 93 90 85 82 91 105 118 132 141 133 129 140 176 184 163 295 295 282 286 289 278